Location: Lourdes
(43.1000°N, 0.0500°W)
Time: 06:00:46
(UTC+00:00)

SL-16 R/B - Pass Details

Date: 30 November 2020
Orbit: 841 x 849 km, 71.0° (Epoch: 27 January)

Event Time Altitude Azimuth Distance (km) Brightness Sun altitude
Rises 17:02:30 0° 199° (SSW) 3,383 6.0 -6.7°
Reaches altitude 10° 17:04:56 10° 199° (SSW) 2,451 5.3 -7.1°
Maximum altitude 17:10:34 81° 113° (ESE) 857 2.2 -8.1°
Drops below altitude 10° 17:16:14 10° 27° (NNE) 2,466 4.2 -9.0°
Enters shadow 17:18:09 - 26° (NNE) 3,200 4.8 -9.3°
